Simultaneous Nadir Overpasses (SNOs) Predictions

Prediction of SNOs between AQUA and GOES-15 Satellite Orbit:

Table of predicted SNOs for the next 14.0 days since TLE Epoch: 8/14/2020
Index Date Time (AQUA) AQUA Lat,Lon GOES-15 Lat,Lon Distance(km) Time Diff (sec)
1 08/15/2020 10:01:10 -0.39,-126.42 -0.03,-128.07 188.40 80
2 08/15/2020 22:22:34 -0.75,-131.60 0.03,-128.02 408.26 80
3 08/17/2020 22:10:23 -0.13,-128.65 0.04,-127.94 80.21 80
4 08/19/2020 21:58:12 0.49,-125.69 0.04,-127.87 247.53 80
5 08/20/2020 10:19:28 0.57,-130.85 -0.04,-127.89 336.77 80
6 08/22/2020 10:07:16 -0.00,-127.89 -0.04,-127.81 9.60 80
7 08/24/2020 09:55:05 -0.63,-124.93 -0.04,-127.72 317.56 80
8 08/24/2020 22:16:29 -0.51,-130.12 0.04,-127.66 279.86 80
9 08/26/2020 22:04:18 0.13,-127.16 0.04,-127.57 46.23 80
